Regional Weather Roundup
Issued by NWS Kansas City/Pleasant Hill, MO

Home | Current Version | Previous Version | Text Only | Print | Product List | Glossary On
Versions: 1 2 3 4 5 6 7 8 9 10 11 12 13 14 15 16 17 18 19 20 21 22 23 24 25 26 27 28 29 30 31 32 33 34 35 36 37 38 39 40 41 42 43 44 45 46 47 48 49 50
000
ASUS43 KEAX 050410
RWREAX

WEATHER ROUNDUP FOR EASTERN KANSAS AND NORTHWEST MISSOURI
NATIONAL WEATHER SERVICE KANSAS CITY/PLEASANT HILL MO
1100 PM CDT TUE AUG 04 2015

KSZ040-057-103>105-MOZ028-029-037-043-050500-
...KANSAS CITY METROPOLITAN AREA...

CITY           SKY/WX    TMP DP  RH WIND       PRES   REMARKS
K.C. INTL      CLOUDY    71  69  93 SE9       29.98R
K.C. DOWNTOWN  CLOUDY    73  69  87 SE6       29.98R
LEES SUMMIT    CLOUDY    71  68  90 E8        30.01R
OLATHE - IXD   MOCLDY    71  70  96 S12       29.99R
OLATHE - OJC   MOCLDY    70  69  97 S6        30.00R
LAWRENCE       MOCLDY    72  69  90 E5        29.97R

$$

MOZ001>008-011>017-020>025-030>033-038>040-044>046-053-054-050500-
...NORTHERN AND CENTRAL MISSOURI...

CITY           SKY/WX    TMP DP  RH WIND       PRES   REMARKS
ST. JOSEPH     MOCLDY    72  68  87 CALM      29.97R
MOSBY          MOCLDY    70  68  94 E5        29.99R
WARRENSBURG    CLOUDY    70  68  94 SE3       30.00R
WHITEMAN AFB   MOCLDY    70  68  95 SE5       30.00R
CLINTON        DRIZZLE   73  70  88 E6        30.01R
SEDALIA        CLOUDY    70  67  90 SE6       30.02S
WARSAW         NOT AVBL
CHILLICOTHE      N/A     71  68  90 CALM      30.01S
KIRKSVILLE     CLOUDY    70  65  84 E6        30.03S

$$

MOZ041-047>049-056>058-063>065-088>090-097-050500-
...EASTERN AND SOUTHERN MISSOURI...

CITY           SKY/WX    TMP DP  RH WIND       PRES   REMARKS
ST. LOUIS INTL MOCLDY    79  70  74 E6        30.01R
SPIRIT OF STL  CLOUDY    75  73  93 S3        29.99R
COLUMBIA       LGT RAIN  70  68  93 N7        30.02S
JEFFERSON CITY LGT RAIN  72  65  78 NW10      29.98F
ROLLA          CLOUDY    69  63  81 S3        29.99F
OSAGE BEACH    CLOUDY    72  66  83 CALM      30.00F
SPRINGFIELD    LGT RAIN  74  69  85 NW7       30.02R
BRANSON        CLOUDY    72  68  88 SE7       30.03F
JOPLIN         CLOUDY    74  70  87 E7        29.99F
WEST PLAINS    CLOUDY    75  65  70 SW10      30.07R

$$

IAZ060-094-KSZ022-034>040-054-083-096-NEZ052-066-093-050500-
...KANSAS...SOUTHEAST NEBRASKA AND IOWA...

CITY           SKY/WX    TMP DP  RH WIND       PRES   REMARKS
TOPEKA         MOCLDY    72  70  93 SW5       29.97R
MANHATTAN      RAIN      72  70  93 VRB3      29.94F
EMPORIA        CLOUDY    71  64  78 SE10      29.98R
CHANUTE        CLOUDY    72  69  90 E6        29.99S
WICHITA        MOCLDY    77  70  79 SE15G22   29.93F
OMAHA          CLOUDY    72  67  84 SE10      29.96F
LINCOLN        CLOUDY    73  68  84 S6        29.96S
FALLS CITY     CLOUDY    69  68  96 CALM      29.96R
LAMONI         MOCLDY    71  68  90 E5        30.01S
DES MOINES     LGT RAIN  73  62  68 E7        30.00F

$$



USA.gov is the U.S. government's official web portal to all federal, state and local government web resources and services.